Moab, UT

10:33 AM MDT on May 20, 2018 (GMT -0600)
Canyonlands

Weather History for KCNY - May, 2013

Change the Weather History Date:

Sunday, May 5, 2013

  Actual Average Record
Temperature  
Mean Temperature 68 °F 59 °F  
Max Temperature 79 °F 74 °F 91 °F (1992)
Min Temperature 56 °F 44 °F 31 °F (1938)
Degree Days  
Heating Degree Days 0 7  
Month to date heating degree days 50 37  
Since 1 July heating degree days 5980 5462  
Cooling Degree Days 3 1  
Month to date cooling degree days 3 3  
Year to date cooling degree days 4 6  
Growing Degree Days 17 (Base 50)    
Moisture  
Dew Point 12 °F    
Average Humidity 14    
Maximum Humidity 22    
Minimum Humidity 6    
Precipitation  
Precipitation 0.00 in 0.02 in 0.80 in (1942)
Month to date precipitation 0.00 0.11  
Year to date precipitation 1.11 2.73  
Sea Level Pressure  
Sea Level Pressure 29.71 in    
Wind  
Wind Speed 10 mph (South)    
Max Wind Speed 24 mph    
Max Gust Speed 31 mph    
Visibility 10 miles    
Events      
T = Trace of Precipitation, MM = Missing Value Source: NWS Daily Summary

Daily Weather History Graph

Daily Weather History Graph

Search for Another Location

Airport or City:

Astronomy

May. 05, 2013 Rise Set
Actual Time 6:16 AM MDT 8:15 PM MDT
Civil Twilight 5:47 AM MDT 8:44 PM MDT
Nautical Twilight 5:12 AM MDT 9:20 PM MDT
Astronomical Twilight 4:33 AM MDT 9:58 PM MDT
Moon 3:46 AM MDT (5/5) 4:20 PM MDT (5/5)
Length of Visible Light 14h 57m
Length of Day
13h 58m
Waning Crescent, 17% of the Moon is Illuminated
May 5
Waning Crescent
May 9
New
May 17
First Quarter
May 24
Full
May 31
Last Quarter

Hourly Weather History & Observations

Time (MDT) Temp. Dew Point Humidity Pressure Visibility Wind Dir Wind Speed Gust Speed Precip Events Conditions
12:53 AM 63.0 °F 8.1 °F 11% 29.65 in 10.0 mi Variable 3.5 mph - N/A   Clear
1:53 AM 61.0 °F 9.0 °F 13% 29.65 in 10.0 mi SE 8.1 mph - N/A   Clear
2:53 AM 62.1 °F 10.9 °F 13% 29.66 in 10.0 mi ESE 4.6 mph - N/A   Clear
3:53 AM 61.0 °F 15.1 °F 17% 29.65 in 10.0 mi East 9.2 mph - N/A   Clear
4:53 AM 61.0 °F 15.1 °F 17% 29.66 in 10.0 mi East 11.5 mph - N/A   Clear
5:53 AM 57.9 °F 15.1 °F 19% 29.68 in 10.0 mi SSE 4.6 mph - N/A   Clear
6:53 AM 59.0 °F 12.9 °F 16% 29.70 in 10.0 mi SE 11.5 mph - N/A   Partly Cloudy
7:53 AM 64.0 °F 9.0 °F 12% 29.73 in 10.0 mi SE 16.1 mph - N/A   Clear
8:53 AM 64.9 °F 12.9 °F 13% 29.76 in 10.0 mi West 8.1 mph - N/A   Clear
9:53 AM 68.0 °F 10.0 °F 11% 29.78 in 10.0 mi SW 3.5 mph - N/A   Clear
10:53 AM 70.0 °F 10.9 °F 10% 29.77 in 10.0 mi Variable 3.5 mph - N/A   Clear
11:53 AM 75.0 °F 10.0 °F 8% 29.76 in 10.0 mi SSW 11.5 mph 23.0 mph N/A   Clear
12:53 PM 75.0 °F 10.0 °F 8% 29.74 in 10.0 mi SSW 11.5 mph 17.3 mph N/A   Clear
1:53 PM 75.9 °F 10.9 °F 8% 29.73 in 10.0 mi SW 12.7 mph - N/A   Clear
2:53 PM 77.0 °F 14.0 °F 9% 29.70 in 10.0 mi SSE 10.4 mph 21.9 mph N/A   Clear
3:53 PM 77.0 °F 12.9 °F 9% 29.70 in 10.0 mi SSW 10.4 mph 17.3 mph N/A   Clear
4:53 PM 77.0 °F 10.9 °F 8% 29.69 in 10.0 mi SSW 17.3 mph 31.1 mph N/A   Clear
5:53 PM 75.0 °F 3.9 °F 6% 29.70 in 10.0 mi SW 11.5 mph - N/A   Clear
6:53 PM 73.0 °F 10.0 °F 9% 29.70 in 10.0 mi WSW 15.0 mph - N/A   Clear
7:53 PM 71.1 °F 10.9 °F 10% 29.70 in 10.0 mi SSW 15.0 mph - N/A   Clear
8:53 PM 68.0 °F 10.9 °F 11% 29.73 in 10.0 mi SW 9.2 mph - N/A   Clear
9:53 PM 68.0 °F 18.0 °F 15% 29.75 in 10.0 mi SSW 18.4 mph 26.5 mph N/A   Clear
10:53 PM 66.9 °F 23.0 °F 19% 29.78 in 10.0 mi South 11.5 mph 25.3 mph N/A   Overcast
11:53 PM 64.9 °F 24.1 °F 21% 29.77 in 10.0 mi WSW 8.1 mph - N/A   Overcast